EW3937 Weather Reports


Display with metric or nautical units.
time (UTC)temp
F
wind
direction
speed
MPH
gust
MPH
rain 1hr
in
rain 24hr
in
rain mn
in
humidity
%
barometer
mb
20260502204003 76 49 1.0 4.0 0.00 0.00 0.00 27 1015.7
20260502203503 76 47 1.0 4.0 0.00 0.00 0.00 27 1015.7
20260502203003 76 53 1.0 4.0 0.00 0.00 0.00 32 1015.8
20260502202718 76 53 1.0 4.0 0.00 0.00 0.00 29 1015.8
20260502202003 76 39 1.0 4.0 0.00 0.00 0.00 32 1015.8
20260502201503 76 29 1.0 4.0 0.00 0.00 0.00 34 1015.8
20260502201003 75 40 1.0 6.0 0.00 0.00 0.00 33 1016.0
20260502200503 75 46 1.0 6.0 0.00 0.00 0.00 34 1016.0
20260502200003 76 46 1.0 3.0 0.00 0.00 0.00 35 1016.0
20260502195503 76 49 1.0 2.0 0.00 0.00 0.00 35 1016.1
20260502195003 75 65 1.0 4.0 0.00 0.00 0.00 35 1016.0
20260502194503 75 78 1.0 7.0 0.00 0.00 0.00 39 1016.0
20260502194003 75 79 1.0 7.0 0.00 0.00 0.00 35 1016.0
20260502193503 75 73 1.0 6.0 0.00 0.00 0.00 36 1016.1
20260502193003 75 53 1.0 4.0 0.00 0.00 0.00 35 1016.1
20260502192503 75 44 1.0 4.0 0.00 0.00 0.00 36 1016.2
20260502192003 75 69 1.0 4.0 0.00 0.00 0.00 41 1016.2
20260502191503 75 66 1.0 4.0 0.00 0.00 0.00 36 1016.2
20260502191003 74 61 1.0 5.0 0.00 0.00 0.00 39 1016.3
20260502190509 74 39 1.0 6.0 0.00 0.00 0.00 43 1016.3
20260502190004 74 28 1.0 6.0 0.00 0.00 0.00 37 1016.4
20260502185717 74 30 1.0 2.0 0.00 0.00 0.00 40 1016.3
20260502185003 73 47 1.0 3.0 0.00 0.00 0.00 41 1016.5
20260502184717 73 52 1.0 3.0 0.00 0.00 0.00 43 1016.5
20260502184003 72 57 1.0 5.0 0.00 0.00 0.00 47 1016.5
20260502183503 72 81 2.0 6.0 0.00 0.00 0.00 44 1016.5
20260502183003 71 66 2.0 6.0 0.00 0.00 0.00 46 1016.5
20260502182003 71 50 1.0 7.0 0.00 0.00 0.00 46 1016.6
20260502181503 71 55 2.0 4.0 0.00 0.00 0.00 46 1016.6
20260502181218 71 58 2.0 4.0 0.00 0.00 0.00 48 1016.6
20260502180503 70 79 2.0 6.0 0.00 0.00 0.00 47 1016.6
20260502170503 66 39 1.0 5.0 0.00 0.00 0.00 52 1016.8
20260502164003 64 53 2.0 7.0 0.00 0.00 0.00 53 1016.7
20260502163503 64 52 1.0 7.0 0.00 0.00 0.00 55 1016.8
20260502163003 64 34 1.0 5.0 0.00 0.00 0.00 54 1016.8
20260502162503 64 340 1.0 3.0 0.00 0.00 0.00 55 1016.8
20260502162217 64 334 1.0 3.0 0.00 0.00 0.00 52 1016.8
20260502161503 63 37 1.0 5.0 0.00 0.00 0.00 57 1016.8
20260502161003 63 39 1.0 6.0 0.00 0.00 0.00 54 1016.8
20260502160503 63 30 1.0 6.0 0.00 0.00 0.00 56 1016.9
20260502152003 60 250 0.0 2.0 0.00 0.00 0.00 62 1016.7
20260502151503 59 269 1.0 4.0 0.00 0.00 0.00 64 1016.6
20260502151217 59 316 1.0 5.0 0.00 0.00 0.00 63 1016.7
20260502150503 59 347 0.0 5.0 0.00 0.00 0.00 63 1016.7
20260502130717 44 0 2.0 2.0 0.00 0.00 0.00 80 1016.4
20260502123717 45 120 0.0 2.0 0.00 0.00 0.00 80 1016.3
20260502123003 45 148 1.0 2.0 0.00 0.00 0.00 81 1016.3
20260502122717 45 150 0.0 4.0 0.00 0.00 0.00 80 1016.2
20260502122003 46 0 0.0 4.0 0.00 0.00 0.00 78 1016.3
20260502121503 46 0 0.0 1.0 0.00 0.00 0.00 78 1016.3
20260502121218 46 0 0.0 1.0 0.00 0.00 0.00 79 1016.3
20260502120503 45 0 0.0 1.0 0.00 0.00 0.00 81 1016.2
20260502120218 45 0 0.0 1.0 0.00 0.00 0.00 81 1016.2
20260502115503 45 0 0.0 1.0 0.00 0.00 0.00 81 1016.3
20260502115218 45 0 0.0 1.0 0.00 0.00 0.00 81 1016.2
20260502114503 45 0 0.0 1.0 0.00 0.00 0.00 82 1016.2
20260502114003 45 0 0.0 2.0 0.00 0.00 0.00 82 1016.3
20260502113503 44 0 0.0 2.0 0.00 0.00 0.00 83 1016.3
20260502113003 44 0 0.0 1.0 0.00 0.00 0.00 84 1016.3
20260502112503 44 0 0.0 1.0 0.00 0.00 0.00 84 1016.3
20260502112003 44 110 0.0 1.0 0.00 0.00 0.00 83 1016.3
20260502111503 45 110 1.0 1.0 0.00 0.00 0.00 81 1016.3
20260502111003 46 105 0.0 3.0 0.00 0.00 0.00 80 1016.2
20260502110503 46 0 3.0 3.0 0.00 0.00 0.00 80 1016.3
20260502110004 45 0 1.0 1.0 0.00 0.00 0.00 82 1016.3
20260502105503 45 0 1.0 1.0 0.00 0.00 0.00 81 1016.3
20260502105003 46 0 0.0 2.0 0.00 0.00 0.00 79 1016.4
20260502104503 47 0 0.0 2.0 0.00 0.00 0.00 79 1016.4
20260502104003 47 0 0.0 2.0 0.00 0.00 0.00 78 1016.4
20260502103503 47 0 0.0 2.0 0.00 0.00 0.00 78 1016.3
20260502103003 46 0 0.0 2.0 0.00 0.00 0.00 80 1016.4
20260502102503 46 0 0.0 2.0 0.00 0.00 0.00 82 1016.4
20260502102003 45 0 0.0 2.0 0.00 0.00 0.00 84 1016.3
20260502101503 44 0 0.0 2.0 0.00 0.00 0.00 84 1016.3
20260502101217 45 0 0.0 2.0 0.00 0.00 0.00 83 1016.3
20260502100503 46 0 0.0 2.0 0.00 0.00 0.00 83 1016.2
20260502091503 45 0 0.0 0.0 0.00 0.00 0.00 85 1016.4
20260502091003 44 0 0.0 0.0 0.00 0.00 0.00 86 1016.3
20260502090503 44 0 0.0 0.0 0.00 0.00 0.00 86 1016.3
20260502071503 44 0 0.0 0.0 0.00 0.00 0.00 85 1016.5
20260502071003 45 0 0.0 0.0 0.00 0.00 0.00 85 1016.5
20260502070503 45 0 0.0 0.0 0.00 0.00 0.00 85 1016.5
20260502070004 45 0 0.0 0.0 0.00 0.00 0.00 85 1016.4
20260502065503 46 0 0.0 0.0 0.00 0.00 0.00 84 1016.3
20260502065003 46 0 0.0 0.0 0.00 0.00 0.00 84 1016.4
20260502064503 46 0 0.0 0.0 0.00 0.00 0.00 83 1016.4
20260502064003 46 0 0.0 0.0 0.00 0.00 0.00 82 1016.4
20260502063503 46 0 0.0 0.0 0.00 0.00 0.00 82 1016.3
20260502063218 47 0 0.0 0.0 0.00 0.00 0.00 82 1016.3
20260502062503 47 0 0.0 0.0 0.00 0.00 0.00 81 1016.4
20260502062003 47 0 0.0 0.0 0.00 0.00 0.00 81 1016.4
20260502061503 47 0 0.0 0.0 0.00 0.00 0.00 81 1016.4
20260502061003 48 0 0.0 0.0 0.00 0.00 0.00 81 1016.3
20260502060503 48 0 0.0 1.0 0.00 0.00 0.00 81 1016.4
20260502060003 48 0 0.0 1.0 0.00 0.00 0.00 81 1016.3
20260502055503 47 0 0.0 1.0 0.00 0.00 0.00 81 1016.3
20260502055003 47 0 0.0 2.0 0.00 0.00 0.00 81 1016.3
20260502054503 47 0 0.0 2.0 0.00 0.00 0.00 81 1016.3
20260502054003 47 0 0.0 1.0 0.00 0.00 0.00 82 1016.3
20260502053503 47 0 0.0 0.0 0.00 0.00 0.00 83 1016.4
20260502053003 46 0 0.0 0.0 0.00 0.00 0.00 83 1016.4
20260502052503 46 0 0.0 0.0 0.00 0.00 0.00 83 1016.5
20260502052003 45 0 0.0 0.0 0.00 0.00 0.00 85 1016.5
20260502051503 45 0 0.0 0.0 0.00 0.00 0.00 83 1016.5
20260502051003 45 0 0.0 0.0 0.00 0.00 0.00 82 1016.5
20260502050503 46 0 0.0 0.0 0.00 0.00 0.00 81 1016.5
20260502050003 46 0 0.0 0.0 0.00 0.00 0.00 81 1016.5
20260502045503 46 0 0.0 1.0 0.00 0.00 0.00 80 1016.5
20260502045003 47 0 0.0 1.0 0.00 0.00 0.00 78 1016.5
20260502044503 48 0 0.0 0.0 0.00 0.00 0.00 78 1016.6
20260502044003 48 0 0.0 0.0 0.00 0.00 0.00 78 1016.6
20260502043503 48 0 0.0 0.0 0.00 0.00 0.00 77 1016.6
20260502043003 49 0 0.0 0.0 0.00 0.00 0.00 76 1016.6
20260502042503 49 0 0.0 0.0 0.00 0.00 0.00 76 1016.5
20260502042003 49 0 0.0 0.0 0.00 0.00 0.00 76 1016.5
20260502041503 49 0 0.0 1.0 0.00 0.00 0.00 74 1016.5
20260502041003 50 0 0.0 2.0 0.00 0.00 0.00 74 1016.5
20260502040503 50 146 0.0 2.0 0.00 0.00 0.00 72 1016.4
20260502040003 52 152 0.0 2.0 0.00 0.00 0.00 71 1016.4
20260502035503 52 0 0.0 2.0 0.00 0.00 0.00 70 1016.4
20260502035003 52 155 0.0 2.0 0.00 0.00 0.00 69 1016.4
20260502034503 53 146 1.0 2.0 0.00 0.00 0.00 68 1016.3
20260502034003 53 148 1.0 2.0 0.00 0.00 0.00 68 1016.2
20260502033718 53 146 1.0 2.0 0.00 0.00 0.00 68 1016.2
20260502033003 54 147 1.0 3.0 0.00 0.00 0.00 66 1016.1
20260502032503 55 150 1.0 3.0 0.00 0.00 0.00 64 1016.0
20260502032003 56 149 1.0 3.0 0.00 0.00 0.00 63 1016.0
20260502031503 57 163 1.0 3.0 0.00 0.00 0.00 61 1015.9
20260502031003 58 185 1.0 3.0 0.00 0.00 0.00 60 1015.9
20260502030503 60 174 1.0 2.0 0.00 0.00 0.00 57 1015.8
20260502030216 61 173 0.0 2.0 0.00 0.00 0.00 56 1015.8
20260502025503 63 328 1.0 3.0 0.00 0.00 0.00 51 1015.7
20260502025003 64 330 1.0 3.0 0.00 0.00 0.00 44 1015.7
20260502024503 65 327 1.0 3.0 0.00 0.00 0.00 43 1015.7
20260502024003 65 322 0.0 3.0 0.00 0.00 0.00 43 1015.6
20260502023503 66 0 0.0 2.0 0.00 0.00 0.00 43 1015.6
20260502023004 66 0 0.0 1.0 0.00 0.00 0.00 44 1015.6
20260502022503 67 323 0.0 3.0 0.00 0.00 0.00 43 1015.6
20260502022218 67 323 1.0 3.0 0.00 0.00 0.00 44 1015.5
20260502021503 68 332 2.0 4.0 0.00 0.00 0.00 44 1015.6
20260502021218 68 335 2.0 4.0 0.00 0.00 0.00 42 1015.6
20260502020503 68 338 2.0 4.0 0.00 0.00 0.00 42 1015.6
20260502020003 69 338 1.0 4.0 0.00 0.00 0.00 42 1015.6
20260502015503 69 338 1.0 4.0 0.00 0.00 0.00 41 1015.6
20260502015003 70 334 1.0 4.0 0.00 0.00 0.00 40 1015.7
20260502014503 70 329 1.0 4.0 0.00 0.00 0.00 41 1015.7
20260502014218 70 335 1.0 3.0 0.00 0.00 0.00 41 1015.8
20260502013717 70 329 1.0 3.0 0.00 0.00 0.00 40 1015.7
20260502013003 71 325 1.0 3.0 0.00 0.00 0.00 38 1015.8
20260502012503 71 325 0.0 3.0 0.00 0.00 0.00 36 1015.8
20260502012218 72 330 0.0 4.0 0.00 0.00 0.00 33 1015.8
20260502011503 72 312 0.0 4.0 0.00 0.00 0.00 38 1015.8
20260502011218 73 315 0.0 4.0 0.00 0.00 0.00 36 1015.8
20260502010503 73 339 0.0 4.0 0.00 0.00 0.00 30 1015.9
20260502010003 73 22 1.0 3.0 0.00 0.00 0.00 32 1016.0
20260502005717 73 25 1.0 3.0 0.00 0.00 0.00 31 1016.0
20260502005003 73 350 1.0 3.0 0.00 0.00 0.00 33 1016.0
20260502004503 74 350 0.0 3.0 0.00 0.00 0.00 33 1016.0
20260502004217 74 358 0.0 3.0 0.00 0.00 0.00 33 1016.0
20260502003503 74 0 0.0 2.0 0.00 0.00 0.00 32 1016.1
20260502003003 74 45 0.0 2.0 0.00 0.00 0.00 30 1016.1
20260502002504 74 20 1.0 3.0 0.00 0.00 0.00 29 1016.1
20260502002003 74 342 1.0 3.0 0.00 0.00 0.00 32 1016.2
20260502001503 74 333 1.0 5.0 0.00 0.00 0.00 30 1016.1
20260502001003 74 335 1.0 5.0 0.00 0.00 0.00 33 1016.2
20260502000503 74 344 1.0 3.0 0.00 0.00 0.00 30 1016.2
20260502000003 74 343 1.0 4.0 0.00 0.00 0.00 31 1016.2
20260501235503 74 346 1.0 4.0 0.00 0.00 0.00 30 1016.3
20260501235003 74 340 1.0 3.0 0.00 0.00 0.00 28 1016.2
20260501234503 75 301 1.0 3.0 0.00 0.00 0.00 30 1016.3
20260501234003 75 224 1.0 4.0 0.00 0.00 0.00 30 1016.3
20260501233503 74 239 1.0 4.0 0.00 0.00 0.00 30 1016.4
20260501233217 74 245 1.0 4.0 0.00 0.00 0.00 28 1016.4
20260501232503 74 340 1.0 6.0 0.00 0.00 0.00 29 1016.6
20260501232003 74 353 0.0 6.0 0.00 0.00 0.00 31 1016.6
20260501231503 74 22 0.0 3.0 0.00 0.00 0.00 32 1016.6
20260501231003 74 33 1.0 2.0 0.00 0.00 0.00 30 1016.8
20260501230503 74 347 1.0 3.0 0.00 0.00 0.00 31 1016.8
20260501230003 74 345 1.0 5.0 0.00 0.00 0.00 29 1016.8
20260501225503 74 349 1.0 5.0 0.00 0.00 0.00 29 1016.9
20260501225217 75 346 1.0 5.0 0.00 0.00 0.00 29 1016.9
20260501224503 75 327 1.0 4.0 0.00 0.00 0.00 30 1017.0
20260501224003 75 330 1.0 4.0 0.00 0.00 0.00 27 1017.1
20260501223503 76 235 1.0 3.0 0.00 0.00 0.00 30 1017.2
20260501223003 76 233 1.0 3.0 0.00 0.00 0.00 29 1017.2
20260501222503 76 165 2.0 6.0 0.00 0.00 0.00 27 1017.3
20260501222003 75 178 2.0 6.0 0.00 0.00 0.00 29 1017.3
20260501221718 75 182 2.0 6.0 0.00 0.00 0.00 28 1017.3
20260501221217 75 199 2.0 4.0 0.00 0.00 0.00 29 1017.4
20260501220503 75 189 2.0 5.0 0.00 0.00 0.00 28 1017.5
20260501215717 75 186 3.0 6.0 0.00 0.00 0.00 29 1017.6
20260501215003 75 178 4.0 7.0 0.00 0.00 0.00 31 1017.7
20260501214503 75 175 4.0 7.0 0.00 0.00 0.00 30 1017.7
20260501214003 75 182 4.0 9.0 0.00 0.00 0.00 30 1017.8
20260501213503 75 183 4.0 9.0 0.00 0.00 0.00 30 1017.8
20260501213003 75 187 4.0 7.0 0.00 0.00 0.00 29 1017.9
20260501212503 75 203 5.0 7.0 0.00 0.00 0.00 30 1017.9
20260501212218 75 200 5.0 10.0 0.00 0.00 0.00 30 1017.9
20260501211503 75 195 3.0 10.0 0.00 0.00 0.00 30 1017.9
20260501211003 75 193 2.0 9.0 0.00 0.00 0.00 34 1017.9
20260501210503 75 212 2.0 8.0 0.00 0.00 0.00 32 1018.0
20260501210003 74 263 2.0 6.0 0.00 0.00 0.00 31 1018.0
20260501205503 74 326 2.0 5.0 0.00 0.00 0.00 30 1018.0
20260501205003 73 331 2.0 5.0 0.00 0.00 0.00 34 1018.1
20260501204503 74 352 2.0 5.0 0.00 0.00 0.00 31 1018.1